RH
23 39 28 29 25 21 20 18 20 20 16 14 10 9 7 9 5 3 3 3 2 2 2 2 3 4 4 4 4 10 11 14 18 24 26 29 27 27 23 27 26 25 28 30 21 20 22
23 36 28 31 26 26 23 21 19 20 18 18 14 10 10 10 8 6 5 4 4 3 2 2 2 3 4 6 6 9 11 14 16 21 28 30 28 28 30 23 24 24 24 30 26 19 20
29 39 31 31 31 31 30 24 19 20 20 19 19 14 11 10 13 9 6 8 5 5 4 3 2 3 3 5 7 7 8 17 25 22 24 30 32 27 29 28 26 24 26 29 29 24 22
32 50 37 32 34 39 34 31 23 20 21 21 18 21 15 12 12 13 13 10 9 8 6 5 4 3 4 4 6 9 13 16 23 32 24 25 29 38 36 35 34 29 24 30 29 26 24
37 55 42 29 39 51 43 41 32 25 21 23 20 20 26 18 14 13 14 14 12 10 11 9 8 7 5 4 4 4 11 20 23 28 33 31 27 29 43 42 37 33 26 36 36 33 26
39 59 43 35 43 53 58 47 40 30 25 22 24 22 24 32 21 16 13 16 18 15 15 14 13 10 10 9 8 6 8 20 25 28 32 37 40 42 45 31 34 37 35 35 37 29 24
38 63 47 46 44 40 76 52 50 38 30 23 25 26 23 26 34 23 17 15 17 16 16 25 20 14 12 16 13 12 15 15 26 32 36 36 38 40 44 40 37 28 36 36 34 29 29
40 71 50 54 53 45 65 75 53 54 38 26 24 25 27 25 29 36 24 17 15 16 16 17 16 18 12 17 18 18 22 24 25 30 31 31 29 31 34 36 46 44 35 30 32 29 28
40 64 65 56 62 48 48 82 63 55 50 37 27 26 26 28 26 27 36 31 20 16 16 19 15 11 13 12 12 18 22 34 32 34 32 31 29 28 30 31 32 30 28 26 27 27 26
41 50 65 64 62 67 49 60 85 60 53 47 36 30 27 26 27 27 28 35 33 22 16 14 16 22 20 14 13 13 17 21 26 25 24 27 28 28 28 28 28 29 27 26 26 26 27
41 51 38 65 69 75 57 60 72 83 61 56 47 36 32 30 26 24 26 27 33 37 22 15 14 13 15 19 12 9 14 16 21 23 24 23 24 25 26 27 27 27 29 30 30 30 29
38 46 42 36 84 84 71 61 57 78 89 65 56 47 38 37 36 33 26 26 28 30 34 26 17 15 16 17 19 23 17 14 17 20 24 26 26 27 29 32 34 34 34 35 37 38 41
45 44 46 39 65 77 77 72 68 64 79 93 78 63 49 46 44 38 36 28 27 28 28 34 34 24 21 17 17 24 28 30 23 20 21 24 28 35 41 43 43 45 46 47 50 49 48
47 46 44 41 38 91 82 79 66 80 77 77 100 86 76 59 62 52 40 41 37 29 26 29 33 32 32 25 29 30 26 22 27 38 39 34 37 41 46 48 46 50 51 49 46 43 39
48 46 45 38 38 78 100 85 69 70 79 82 79 100 91 70 57 74 56 59 57 50 34 28 28 32 35 37 42 35 40 25 18 22 31 43 45 48 52 58 51 49 49 51 50 52 51
47 45 42 40 37 41 69 80 93 70 82 92 84 98 100 85 71 65 65 64 70 64 60 40 38 27 28 32 36 47 48 41 49 45 42 51 54 56 58 62 57 56 64 65 65 60 60
39 47 40 39 36 39 42 50 100 86 74 100 97 81 94 100 94 75 66 66 66 72 63 76 47 38 36 28 30 37 50 52 54 51 49 51 52 52 49 51 46 50 46 50 46 46 44
38 37 42 39 36 33 39 43 70 100 82 98 100 97 77 100 100 100 79 63 47 56 74 65 74 59 46 39 35 32 31 32 43 49 50 50 53 58 61 62 62 64 63 62 63 61 62
42 29 29 34 40 34 30 31 41 81 93 86 100 100 93 97 100 100 98 85 62 51 61 74 67 63 58 53 39 41 40 38 32 32 33 40 50 56 58 66 71 73 70 65 63 55 58
40 33 29 27 33 34 25 30 32 38 83 82 81 100 100 93 92 100 100 100 81 60 59 60 73 69 57 51 48 44 42 43 42 39 34 33 38 41 42 49 57 71 75 72 72 61 50
65 39 32 29 24 28 28 28 32 30 50 100 65 66 99 100 98 100 100 100 100 81 84 68 68 82 73 70 59 54 47 41 41 50 53 46 40 37 38 51 52 58 62 72 81 90 90
100 59 36 26 25 27 24 24 25 29 31 62 100 73 62 87 100 100 100 100 100 93 77 92 88 55 64 100 89 93 76 54 35 35 43 48 56 56 43 41 38 36 45 51 60 74 69
100 100 92 34 26 25 25 24 27 29 30 39 100 100 77 77 94 100 100 100 100 97 69 94 100 64 100 73 100 100 85 87 59 46 41 49 47 48 64 64 53 49 36 32 43 56 63
93 92 100 100 47 30 23 23 24 35 38 47 88 100 100 97 100 100 100 100 92 95 96 64 76 70 87 52 71 83 99 95 90 76 61 68 54 49 54 51 60 60 58 57 44 43 51
100 100 100 100 100 81 40 26 24 28 48 73 99 100 100 100 100 100 100 100 100 100 100 100 88 59 87 92 100 99 100 100 83 73 75 81 82 78 68 59 51 53 67 78 58 42 54
98 99 100 100 100 100 100 81 33 35 82 100 100 100 100 100 100 100 100 100 100 100 100 100 100 84 100 100 100 100 100 100 100 100 80 84 74 82 76 76 58 48 45 48 48 48 43
100 100 94 100 100 100 100 100 100 84 83 91 100 100 100 100 100 100 100 100 100 100 100 100 99 75 96 100 100 99 100 100 100 100 100 100 85 86 95 100 79 57 48 50 57 56 45
100 100 100 100 100 100 100 100 100 100 96 93 89 81 75 73 80 89 99 100 92 96 68 65 70 84 86 100 100 99 100 100 100 100 100 100 98 98 100 100 93 82 63 69 77 83 68
100 100 100 100 100 100 100 100 100 100 100 100 100 95 81 70 63 63 81 99 78 78 68 66 84 79 100 100 99 100 100 100 100 100 100 100 100 100 100 100 80 69 71 86 87 82 87
Wind_Speed
37 41 46 52 62 69 80 89 95 92 98 96 76 67 63 60 48 34 31 21 12 10 17 26 37 45 58 70 81 103 122 121 120 109 108 101 98 93 91 83 79 74 71 71 70 70 69
38 40 46 52 61 69 78 88 95 98 98 101 93 75 67 61 57 47 41 34 24 16 15 26 38 51 56 61 77 93 106 111 115 110 104 102 97 94 90 87 82 76 75 73 73 69 68
37 38 45 50 60 67 75 83 94 99 101 99 100 89 76 66 60 54 44 42 36 26 17 17 28 40 58 65 69 80 94 112 113 112 106 103 99 93 91 87 83 80 77 74 74 71 67
35 38 42 49 56 64 72 80 88 96 102 97 97 99 90 78 70 61 53 43 40 35 26 16 20 35 50 61 69 75 82 104 115 112 110 108 102 98 94 89 83 81 77 74 72 73 69
33 35 39 47 52 61 67 76 84 92 96 101 95 98 102 91 80 69 59 48 37 34 31 22 16 16 29 43 56 62 73 92 106 112 111 105 103 100 95 88 84 82 81 75 73 73 73
30 32 36 43 50 56 64 70 77 85 92 94 100 96 99 103 90 78 65 56 49 31 29 28 17 12 16 19 24 45 61 81 94 102 104 104 101 96 92 90 85 82 79 77 75 75 74
27 29 33 40 47 51 57 65 71 78 86 92 97 100 97 97 101 87 75 63 51 45 27 25 24 18 16 15 22 32 51 68 79 90 94 100 102 99 96 89 85 83 79 79 76 76 73
26 27 30 35 42 48 53 59 66 72 79 85 90 94 97 90 94 99 86 76 62 48 44 28 20 28 26 21 21 32 40 54 66 75 82 88 94 96 95 91 87 84 82 80 79 76 73
23 25 26 32 38 44 47 52 60 66 71 78 84 88 93 96 93 93 99 89 74 62 50 41 25 20 22 27 24 34 46 54 61 67 73 79 84 90 91 89 87 83 80 78 77 73 68
20 21 24 27 32 38 42 47 51 60 66 71 77 85 88 91 93 95 91 92 87 73 59 46 37 28 17 23 26 30 36 46 53 59 65 68 71 75 81 85 81 78 76 73 70 68 67
17 19 21 24 26 32 37 41 46 52 59 65 69 77 82 87 89 94 94 90 88 86 71 58 49 40 31 21 10 18 25 34 42 47 52 54 55 57 61 63 63 64 62 62 60 61 57
16 17 17 20 23 26 32 36 40 45 51 58 62 68 74 79 84 87 89 90 90 84 80 73 62 51 42 34 20 9 5 24 30 38 42 40 37 34 32 35 39 43 44 43 43 42 43
17 17 15 17 20 23 27 30 35 38 43 49 55 58 65 70 76 81 83 86 90 86 82 80 75 64 57 50 43 34 14 8 12 25 30 29 26 27 24 25 25 27 30 30 32 36 38
20 17 17 15 18 22 23 27 31 34 38 42 46 52 55 61 66 72 76 79 81 84 82 83 74 72 67 56 55 50 37 26 21 18 22 21 21 20 18 15 16 19 23 25 27 27 27
23 19 18 14 13 17 21 24 27 30 32 35 39 44 49 53 59 62 66 72 73 76 79 80 79 76 66 68 66 56 54 45 32 27 27 35 19 17 16 16 15 13 11 12 14 16 21
27 23 21 18 14 13 18 20 22 24 27 32 34 35 41 46 50 54 57 63 66 70 72 73 77 76 75 62 60 64 64 55 51 45 39 33 25 21 17 14 10 7 6 8 12 15 20
31 27 25 22 18 14 15 16 16 20 21 25 30 32 34 38 43 48 51 54 57 63 65 65 68 70 72 68 61 53 56 57 56 49 38 28 21 16 13 10 8 7 4 6 6 7 9
35 31 28 26 24 19 15 15 15 18 17 19 24 28 29 30 35 40 43 49 51 55 57 60 60 62 62 63 60 57 49 42 45 45 43 41 37 34 32 29 26 22 19 16 13 9 7
36 34 29 28 27 23 21 17 16 16 18 17 19 23 25 26 28 32 36 40 45 48 50 51 53 55 56 56 56 55 51 51 40 35 32 31 29 26 25 23 20 19 17 13 12 11 9
31 38 33 30 28 26 24 22 18 19 19 19 15 20 22 22 24 26 30 32 39 41 42 46 45 48 49 50 50 48 49 48 46 41 33 29 26 25 23 22 24 25 26 22 21 18 13
28 35 37 34 30 29 27 26 25 21 22 22 20 18 17 18 20 22 24 28 30 35 34 37 40 39 42 42 45 46 43 42 40 40 39 36 34 27 22 20 18 18 19 20 20 20 18
29 31 37 37 35 33 30 29 26 26 22 25 26 23 17 15 19 20 22 23 25 29 31 28 35 33 36 35 37 40 41 42 37 35 36 36 34 33 30 30 31 14 9 11 12 15 14
34 32 32 39 39 37 35 32 31 33 29 27 26 26 27 19 17 20 21 23 23 26 27 24 26 30 26 33 30 34 38 40 39 37 37 35 35 35 35 37 34 32 29 23 20 20 15
42 36 33 34 38 42 42 40 36 32 30 29 28 27 28 26 21 20 20 23 25 26 28 27 26 29 25 33 31 32 33 37 38 37 36 35 37 39 40 39 38 38 35 33 34 31 30
46 45 42 40 40 37 39 43 39 36 34 33 32 28 28 28 26 25 24 25 26 25 26 31 30 31 28 31 34 32 35 37 39 40 37 37 37 41 44 43 43 41 35 37 37 32 31
55 49 48 48 46 45 42 38 37 38 34 31 32 32 31 30 33 31 30 30 30 29 30 31 36 34 23 37 35 32 36 41 43 43 43 45 43 42 44 47 53 54 49 46 46 44 42
62 57 54 51 50 49 48 48 43 40 41 40 38 38 37 36 35 36 37 37 37 36 37 37 40 41 27 37 37 32 42 46 47 44 47 51 52 47 47 47 55 58 59 59 54 57 57
73 67 62 57 54 55 54 52 53 52 48 47 46 47 47 47 47 48 46 47 46 45 44 45 43 42 38 40 49 43 48 50 50 51 54 57 56 51 51 54 60 64 65 62 66 62 64
82 79 73 69 66 64 63 60 58 58 57 54 53 55 53 54 53 51 50 52 53 55 52 51 50 47 37 47 55 46 52 57 57 60 62 60 59 54 56 63 71 72 70 69 69 72 73
Wind_Direction
341 351 352 356 358 13 20 21 23 21 17 19 22 24 24 27 27 32 37 41 59 120 149 164 174 179 187 193 198 201 208 205 208 209 213 217 219 223 225 228 230 233 236 241 241 238 240
340 351 353 356 2 12 21 22 24 25 23 22 23 29 31 32 31 38 45 50 59 84 132 160 172 179 183 188 195 200 208 204 208 208 212 216 219 222 224 228 230 233 234 237 242 241 241
343 352 355 359 5 15 20 24 25 25 27 27 25 27 34 39 35 37 50 54 59 72 94 143 170 181 185 187 192 199 203 204 206 208 211 215 219 222 225 228 230 234 235 235 240 243 243
344 353 356 360 9 17 18 23 25 27 28 30 29 31 33 38 39 39 40 53 62 61 79 107 160 175 186 193 188 197 197 201 206 208 212 214 218 222 225 227 231 235 234 237 242 245 244
340 354 357 1 9 19 20 24 24 27 29 32 33 32 36 37 40 38 43 48 57 71 76 89 121 169 195 197 197 198 193 199 205 209 213 216 219 221 226 228 231 234 235 237 240 244 246
335 352 357 359 8 20 22 25 27 28 30 33 35 37 37 39 40 40 39 44 45 59 78 90 92 122 161 184 196 198 194 199 202 208 213 216 220 223 226 230 232 234 237 239 241 244 246
334 352 356 357 7 16 22 24 28 29 30 33 35 38 39 40 42 43 42 43 43 45 72 98 105 103 124 155 171 177 196 198 200 204 210 214 218 220 225 228 231 234 235 238 240 243 246
334 350 353 358 3 12 23 23 27 30 30 33 36 38 42 43 43 45 45 44 45 44 48 50 102 120 117 135 166 172 185 196 198 203 208 213 217 220 223 226 230 233 235 237 240 244 246
328 343 352 355 360 8 20 27 26 30 32 32 36 37 39 43 44 44 47 47 46 46 47 48 51 88 119 135 156 182 182 189 198 203 206 211 216 220 223 226 230 234 237 240 243 247 250
318 335 349 355 354 8 12 25 28 27 31 32 34 38 39 41 43 45 46 48 48 48 49 48 50 49 71 135 148 168 190 190 195 203 206 210 215 220 224 228 232 236 239 242 245 249 250
307 320 341 352 354 2 8 19 28 28 30 31 34 37 39 40 40 43 45 47 48 50 49 51 51 51 54 61 119 152 180 190 191 197 205 210 214 220 226 230 234 239 244 245 246 247 251
290 303 332 347 349 355 6 11 19 26 28 29 33 36 38 39 40 41 42 46 47 49 54 54 53 55 56 60 65 69 59 181 192 196 200 204 208 212 215 222 227 232 236 239 241 244 247
278 289 313 337 344 346 358 5 11 20 28 28 30 34 36 38 41 41 42 46 46 47 49 57 61 61 65 68 68 72 90 70 170 196 196 198 200 205 212 215 214 219 222 227 232 236 238
267 277 296 322 342 335 348 358 5 12 22 26 26 30 34 36 38 40 41 43 44 44 45 51 55 62 68 75 79 80 86 100 128 171 190 177 180 173 181 180 180 193 204 214 223 232 239
255 266 279 301 323 331 333 346 356 4 13 21 24 26 30 33 36 38 36 41 41 42 44 45 48 52 60 65 68 71 74 79 96 119 149 160 146 153 156 154 164 173 188 213 232 240 241
250 256 265 280 299 320 327 337 344 357 2 15 20 19 24 26 32 35 35 37 37 38 38 41 42 45 46 54 66 69 71 73 77 85 113 117 115 125 135 140 149 157 187 220 242 255 261
247 250 261 268 280 291 309 328 327 338 354 357 10 19 17 19 22 31 34 33 35 34 36 37 37 39 43 45 52 67 73 73 76 81 92 109 105 104 118 132 129 140 170 200 223 241 247
245 249 253 263 272 280 290 312 321 321 340 344 347 9 14 11 12 20 27 29 31 34 34 35 35 38 42 45 48 52 58 71 80 84 85 89 91 91 90 92 93 92 90 87 88 85 77
252 249 253 259 265 274 285 299 301 308 314 330 334 339 2 6 7 7 18 22 25 30 32 33 34 35 38 42 46 48 50 53 58 75 83 89 90 89 90 88 88 82 76 73 65 60 56
267 250 256 263 261 266 278 288 293 295 295 304 322 323 338 355 5 359 6 16 18 21 25 27 30 29 32 34 37 40 43 46 48 50 53 60 70 74 74 81 81 77 70 66 57 41 30
290 262 252 257 260 264 268 279 289 287 283 282 296 318 321 338 345 349 353 1 9 13 13 18 19 22 23 26 26 30 31 30 32 32 38 37 35 34 45 62 69 71 56 49 46 57 45
292 282 259 260 262 262 266 276 283 286 283 279 276 293 316 325 321 330 338 346 353 357 4 1 6 13 14 14 12 14 17 19 22 21 20 17 20 19 19 14 4 3 26 26 25 19 21
276 283 282 261 261 265 265 272 277 279 284 283 272 269 286 309 310 317 316 329 340 342 351 350 350 358 360 5 2 357 1 2 8 13 12 9 1 0 356 350 353 359 347 337 339 342 337
275 278 282 283 269 261 264 268 273 272 279 275 274 264 276 283 301 301 309 315 323 330 330 335 344 347 346 346 352 347 346 349 351 356 359 357 356 353 348 343 338 337 339 342 335 325 321
264 267 271 279 280 275 270 268 268 265 271 264 269 263 274 277 289 291 294 302 309 316 318 316 326 330 333 333 325 322 329 330 336 341 344 343 344 344 344 344 340 336 332 330 330 324 319
259 262 268 269 272 275 273 273 264 260 264 266 266 267 275 278 286 287 293 296 298 307 307 306 307 321 301 306 317 307 312 316 323 327 331 329 332 334 334 331 333 334 334 327 324 323 314
263 263 262 267 266 267 270 271 271 267 266 266 270 270 271 274 276 279 283 288 291 295 296 295 299 303 303 291 303 307 296 305 309 314 317 319 323 321 322 321 321 325 326 328 324 325 320
261 260 263 261 264 266 266 264 265 265 268 272 275 276 278 279 282 284 284 289 290 290 291 296 298 297 301 291 297 303 295 299 302 306 308 311 314 315 313 313 315 317 320 321 321 321 321
258 260 261 260 261 261 263 264 262 260 261 265 271 275 278 281 283 283 285 285 287 292 291 292 291 295 285 280 294 294 290 295 299 301 304 308 309 310 307 307 311 315 317 315 316 317 316